Location: La Tine
(46.4708°N, 7.0525°E)
Time: 17:04:51
(UTC+00:00)

CZ-4 R/B - Pass Details

Date: 18 September 2020
Orbit: 530 x 600 km, 97.7° (Epoch: 28 October)

Event Time Altitude Azimuth Distance (km) Brightness Sun altitude
Rises 18:43:36 0° 191° (S) 2,834 4.9 -12.2°
Reaches altitude 10° 18:45:58 10° 202° (SSW) 1,938 4.2 -12.6°
Maximum altitude 18:49:41 30° 264° (W) 1,089 3.6 -13.2°
Drops below altitude 10° 18:53:26 10° 326° (NNW) 1,943 4.9 -13.8°
Sets 18:55:49 0° 338° (NNW) 2,844 5.6 -14.2°
